Location: Sternwarte_Laufen
(47.9344°N, 12.9346°E)
Time: 07:33:04
(UTC+01:00)

ISS - Pass Details

Date: 12 November 2018
Orbit: 401 x 409 km, 51.6° (Epoch: 21 November)

Event Time Altitude Azimuth Distance (km) Brightness Sun altitude
Exits shadow 04:18:37 17° 97° (E) 1,119 -0.9 -28.6°
Drops below altitude 10° 04:19:28 10° 100° (E) 1,462 -0.1 -28.5°
Sets 04:21:34 0° 104° (ESE) 2,322 1.1 -28.1°
